Regional Weather Roundup
Issued by NWS Wakefield, VA

Home | Current Version | Previous Version | Text Only | Print | Product List | Glossary On
Versions: 1 2 3 4 5 6 7 8 9 10 11 12 13 14 15 16 17 18 19 20 21 22 23 24 25 26 27 28 29 30 31 32 33 34 35 36 37 38 39 40 41 42 43 44 45 46 47 48 49 50
000
ASUS41 KAKQ 011910
RWRAKQ

REGIONAL WEATHER ROUNDUP
NATIONAL WEATHER SERVICE WAKEFIELD VA
200 PM EST SUN MAR 01 2015

Note: "fair" indicates few or no clouds below 12,000 feet with no
significant weather and/or obstructions to visibility. * = Denotes
station may not report precipitation (e.g., rain,snow,etc.),
thunder or fog.

VAZ042-051-052>054-056-012000-
NORTHERN VIRGINIA

CITY           SKY/WX    TMP DP  RH WIND       PRES   REMARKS
WASH NATIONAL  FRZ RAIN  31  26  82 S5        30.48F
DULLES         FRZ RAIN  28  24  85 S8        30.44F FOG
FORT BELVOIR   DRIZZLE   28  27  93 SE6       30.47F
QUANTICO       FRZ RAIN  29  26  89 S5        30.48F FOG
FREDERICKSBRG* MIX PCPN  31  31 100 CALM      30.47F
STAFFORD*      MIX PCPN  29  32 100 CALM      30.51F
WARRENTON      LGT RAIN  31  30  98 S3        30.44F
CULPEPER*      MIX PCPN  30  27  86 S3        30.45F
MANASSAS*      NOT AVBL
LEESBURG*      MIX PCPN  30  30 100 S10       30.43F WCI  21
WINCHESTER     MIX PCPN  32  25  74 S6        30.37F
FRONT ROYAL*   CLOUDY    32  28  86 CALM      30.37F
LURAY*         CLOUDY    36  30  80 SW3       30.37F
$$

VAZ048-049-060>072-079>083-012000-
CENTRAL AND SOUTH CENTRAL VIRGINIA

CITY           SKY/WX    TMP DP  RH WIND       PRES   REMARKS
RICHMOND       FRZ RAIN  30  26  85 CALM      30.48F FOG
CHESTERFIELD*  CLOUDY    28  18  64 CALM      30.49F
PETERSBURG*    MIX PCPN  31  29  94 CALM      30.48F
HANOVER        FRZ RAIN  29  27  92 CALM      30.49F FOG
TAPPAHANNOCK*  MIX PCPN  31  27  86 CALM      30.49F
QUINTON*       CLOUDY    28  27  93 NW3       30.49F
CHARLOTTSVILLE LGT RAIN  28  25  88 CALM      30.42F FOG
GORDONSVILLE*  CLOUDY    28  26  89 S3        30.43F FOG
ORANGE*        MIX PCPN  32  28  86 CALM      30.46F
LOUISA*        MIX PCPN  30  28  93 CALM      30.44F
BUMPASS*       CLOUDY    29  28  94 CALM      30.46F
FARMVILLE*     MIX PCPN  35  30  82 CALM        N/A
CREWE*         CLOUDY    30  29  94 CALM      30.47F
FORT PICKETT*  CLOUDY    29  28  96 N6        30.47F
CHASE CITY*    CLOUDY    33  33 100 NW3       30.46F
CLARKSVILLE*   CLOUDY    32  32 100 N3        30.45F
SOUTH HILL*    CLOUDY    31  29  94 N3        30.52F
LAWRENCEVILLE* CLOUDY    31  29  95 CALM      30.46F
EMPORIA*       CLOUDY    30  30 100 NW6       30.48F
$$

VAZ088>098-012000-
SOUTHEAST VIRGINIA

CITY           SKY/WX    TMP DP  RH WIND       PRES   REMARKS
NORFOLK        MIX PCPN  32  27  81 N9        30.46F
VIRGINIA BEACH LGT RAIN  39  30  70 N10       30.44F
NORFOLK NAVAL  CLOUDY    35  28  75 N9        30.48F
WEST POINT*    CLOUDY    32  28  86 CALM      30.50F
SALUDA*        CLOUDY    29  27  92 CALM      30.47F
NEWPORT NEWS   LGT RAIN  34  28  79 NE6       30.47F
LANGLEY AFB    MIX PCPN  32  28  86 N9        30.47F
FORT EUSTIS    DRIZZLE   32  31  98 NE3       30.45F
WILLIAMSBURG*  CLOUDY    34  30  86 N3        30.49F
HR EXEC AP*    CLOUDY    36  28  75 N3        30.49F
FRANKLIN*      LGT RAIN  32  31  95 NW5       30.47F
WAKEFIELD      MIX PCPN  32  28  85 N3        30.48F FOG
$$

VAZ020-022-025-037-045-012000-
WEST CENTRAL AND SOUTHWEST VIRGINIA

CITY           SKY/WX    TMP DP  RH WIND       PRES   REMARKS
STAUNTON*      CLOUDY    34  24  66 SE6       30.39F
WAYNESBORO*    CLOUDY    33  26  75 CALM      30.36F
HOT SPRINGS VA CLOUDY    36  35  96 W10       30.28S FOG
LYNCHBURG      CLOUDY    28  27  96 S6        30.42F
DANVILLE       CLOUDY    33  29  85 NE3       30.45F
SOUTH BOSTON*  CLOUDY    32  30  94 NE3       30.44F
MARTINSVILLE   RAIN      33  30  92 CALM      30.45F
ROANOKE        PTSUNNY   33  19  56 SE5       30.41F
BLACKSBURG     PTSUNNY   40  28  62 NW5       30.37F
DUBLIN*        CLOUDY    41  29  61 CALM      30.35F
MARION*        CLOUDY    45  31  56 CALM      30.35F
HILLSVILLE*    MOSUNNY   51  44  76 SW14      30.33F
RICHLANDS*     CLOUDY    51  37  58 SW8G16    30.31F
WISE*          CLOUDY    46  36  66 SW7       30.33F
ABINGDON*      CLOUDY    51  33  51 CALM      30.33F
$$

MDZ021>025-VAZ099-100-012000-
SOUTHERN MARYLAND AND THE DELMARVA PENINSULA

CITY           SKY/WX    TMP DP  RH WIND       PRES   REMARKS
PATUXENT RIVER FRZ RAIN  26  23  88 E5        30.49F FOG
BAY BRIDGE APT MIX PCPN  28  28 100 SE6       30.49F
LEONARDTOWN    CLOUDY    28  27  93 CALM      30.50F
DOVER          FRZ RAIN  28  28 100 CALM      30.49F FOG
GEORGETOWN     MIX PCPN  30  27  88 CALM      30.49F FOG
EASTON         LGT SNOW  28  28 100 CALM      30.52F
CAMBRIDGE      CLOUDY    32  28  86 CALM      30.49F
SALISBURY      FRZ RAIN  33  29  85 NW5       30.47F FOG
OCEAN CITY     FRZ RAIN  30  29  96 N9        30.47F FOG
WALLOPS ISLAND FRZ RAIN  31  30  96 N9        30.47F FOG
ACCOMACK*      CLOUDY    32  30  93 N6        30.47F
$$

NCZ012>017-030>032-012000-
NORTH CENTRAL AND EASTERN NORTH CAROLINA

CITY           SKY/WX    TMP DP  RH WIND       PRES   REMARKS
ROANOKE RAPIDS DRIZZLE   32  32 100 N6        30.45F
RALEIGH        LGT RAIN  33  30  88 CALM      30.45F FOG
ELIZABETH CITY CLOUDY    43  40  89 CALM      30.45S
AHOSKIE*       LGT RAIN  33  32  96 N3        30.45F
EDENTON*       RAIN      41  39  94 CALM      30.43F
CURRITUCK*     PTSUNNY   40  37  90 N3        30.45F
KILL DEVIL HLS CLOUDY    48  45  89 SE3       30.42F
MANTEO         CLOUDY    52  46  82 S5        30.43F
CAPE HATTERAS  CLOUDY    52  46  80 SE8       30.43F
TARBORO*       DRIZZLE   35  34  94 N6        30.45F
GOLDSBORO      CLOUDY    36  36  99 CALM      30.41F
WASHINGTON     DRIZZLE   41  40  95 N3        30.43F
GREENVILLE     RAIN      37  37 100 N6        30.42F
NEW BERN       LGT RAIN  48  44  86 CALM      30.42F
WILMINGTON     LGT RAIN  54  47  77 N5        30.41F
$$

VAZ048-012000-
ELSEWHERE

CITY           SKY/WX    TMP DP  RH WIND       PRES   REMARKS
HARRISBURG PA  LGT SNOW  26  22  84 SE5       30.42F VSB 3/4
BALTIMORE      FRZ RAIN  29  27  92 S3        30.45F FOG
ANNAPOLIS      FRZ RAIN  27  25  92 S10       30.47F FOG     WCI  17
ANDREWS AFB    MIX PCPN  29  26  92 S2        30.46F FOG
PHILADELPHIA   SLEET     28  24  85 CALM      30.49F FOG
HENDERSON NC   MIX PCPN  32  31  94 CALM      30.44F
GREENSBORO     DRIZZLE   34  30  86 N5        30.42F FOG
ROCKY MOUNT    LGT RAIN  34  33  96 N8        30.43F FOG
$$

VAZ100-012000-
MARINE

STATION/POSITION TIME  TEMP    WIND        PRES    WAVE   SWELL
                       AIR SEA DIR/SP/G            HT/PER HT/PER
                 (UTC) (F)     (DEG/KT/KT) (MB)    (FT/S) (FT/S)
BRANDYWINE LGT   1900   27 30  240/  1/  2 1033.0R
CAPE MAY NJ      1900   29 32  110/  2/  3 1032.3F
LEWES DE         1900   28 30   CALM  /  1 1032.6F
15NM E FENWICK I 1900   30 34              1031.7F   2/ 9
OCEAN-CITY-INLET 1900   29 31  360/  6/  7 1032.2F
WACHAPREAGUE VA  1900   33 33  360/  3/  6 1031.5F
THOMAS POINT MD  1900   26 31   CALM  /  5 1033.2F
COVE POINT MD    1900   24     180/  5/  5 1032.6F
SOLOMONS ISLAND  1900      32                N/A
BISHOPS HEAD MD  1900   28 31  340/  2/  3 1032.4S
CAMBRIDGE MD     1900   27 32   90/  1/  3 1032.8F
LEWISETTA VA     1900   27 33              1032.2F
RAPPAHANNOCK LGT 1900          350/ 11/ 12 1032.5F
STINGRAY PT      1900   29 32  360/  8/ 10   N/A     1/ 2
YORK RVR RNG VA  1900   30     360/ 10/ 11 1031.5F
YORKTOWN VA      1900   31 33  350/  5/  6 1032.3S
DOMINION TERM VA 1900   33      60/  1/  4 1031.8F
KIPTOPEKE VA     1900      37  340/ 10/ 12   N/A
CHES BAY BRIDGE  1900   31 33  330/  7/  9 1031.2R
CAPE HENRY VA    1900   32     320/  8/ 10 1030.1R
CHESAPEAKE LGHT  1800   34      20/ 10/ 11 1032.6F
WILLOUBY STN VA  1900           10/  9/ 10 1032.0F
S CRANEY ISL VA  1900          360/  6/  8 1032.0R
CAPE HENRY BUOY  1900      35                N/A     3/ 5
1ST LANDING BUOY 1900   32 33  340/ 10/ 12 1031.0F   2/ 4
OFFSHORE WE BUOY 1900      37                N/A     3/ 4   3/ 4
64NM E OF VA BCH 1900   58 62  170/ 23/ 27 1029.8F   5/ 5   2/10
DUCK PIER NC     1900   34 34  360/  5/  6 1029.8S
44100 DUCK FRF   1900      36                N/A     4/ 5
44056 DUCK FRF   1900      34                N/A     3/10
OREGON INLET NC  1900   49 38  110/  4/  9 1030.9R
HATTERAS NC      1900   53 39  140/  8/ 12 1030.6R
CAPE LOOKOUT NC  1800   57     140/  9/ 10 1030.4F
$$


USA.gov is the U.S. government's official web portal to all federal, state and local government web resources and services.